Falls Church, VA

6:11 AM EDT on August 29, 2015 (GMT -0400)
Broyhill Park | | Change Station
CLOSE
Current Station
Personal Weather Station
Location: Falls Church, VA
Elevation: 295 ft
Nearby Weather Stations

Elev 295 ft 38.86 °N, 77.20 °W | Updated 23 seconds ago

Partly Cloudy
Partly Cloudy
60.1 °F
Feels Like 60.1 °F
N
0.0
Wind Variable Wind from ENE
Gusts 0.0 mph

Today
High -- | Low -- °F
--% Chance of Precip.
Yesterday
High -- | Low -- °F
Precip. -- in
6:34 AM 7:44 PM
Full, 100% visible
Pressure 30.19 in
Visibility 10.0 miles
Clouds Few 7000 ft
Dew Point 59 °F
Humidity 96%
Rainfall 0.00 in
Snow Depth Not available.
UV 0 out of 12
Pollen 9.80 out of 12
Air Quality Not available.
Flu Activity Not available.
METAR KDCA 290952Z 20005KT 10SM FEW070 19/16 A3020 RMK AO2 SLP224 T01940161
Pressure 30.19 in
Visibility 10.0 miles
Clouds Few 7000 ft
Dew Point 59 °F
Humidity 96%
Rainfall 0.00 in
Snow Depth Not available.
UV 0 out of 12
Pollen 9.80 out of 12
Air Quality Not available.
Flu Activity Not available.
METAR KDCA 290952Z 20005KT 10SM FEW070 19/16 A3020 RMK AO2 SLP224 T01940161

10-Day Weather Forecast

×

Almanac

Astronomy

Aug. 29, 2015 Rise Set
Actual Time
Civil Twilight
Nautical Twilight
Astronomical Twilight
Moon
Length of Visible Light
Length of Day
Tomorrow will be .
, % of the Moon is Illuminated

Today's Extremes

State Highs State Lows

Community

WunderPhotos

Upload Photos

1,850,633 photos uploaded!

WunderBlogs® & News

Nearby

Air Quality

  Air Quality AQ Index Pollutant
Not available.

Snow Depth

Station Depth Elevation

Earthquake Activity

City Distance Mag. Time & Date
Minimum magnitude displayed is 2.5.

Coastal Water Temperatures

Place Temperature

Stations

Nearby Weather Stations

Station Location Temp. Windchill Dew Point Humidity Wind Precip. Elev Updated Type